Weather History for KSXT - January, 2013

Change the Weather History Date:

Tuesday, January 15, 2013

  Actual Average Record
Temperature  
Mean Temperature 42 °F -  
Max Temperature 54 °F 40 °F 64 °F (2009)
Min Temperature 30 °F 32 °F 19 °F (2012)
Degree Days  
Heating Degree Days 23    
Moisture  
Dew Point 18 °F    
Average Humidity 39    
Maximum Humidity 56    
Minimum Humidity 23    
Precipitation  
Precipitation 0.00 in - - ()
Sea Level Pressure  
Sea Level Pressure 30.52 in    
Wind  
Wind Speed 7 mph (ESE)    
Max Wind Speed 12 mph    
Max Gust Speed -    
Visibility 10 miles    
Events      
Averages and records for this station are not official NWS values.
T = Trace of Precipitation, MM = Missing Value Source: NWS Daily Summary

Daily Weather History Graph

Daily Weather History Graph

Search for Another Location

Airport or City:

Trip Planner

Search our weather history database for the weather conditions in past years. The results will help you decide how hot, cold, wet, or windy it might be!

Date:

Astronomy

Jan. 15, 2013 Rise Set
Actual Time 7:40 AM PST 5:05 PM PST
Civil Twilight 7:09 AM PST 5:37 PM PST
Nautical Twilight 6:34 AM PST 6:11 PM PST
Astronomical Twilight 6:00 AM PST 6:45 PM PST
Moon 9:42 AM PST (1/15) 10:09 PM PST (1/15)
Length of Visible Light 10h 27m
Length of Day
9h 25m
Waxing Crescent, 20% of the Moon is Illuminated
Jan 15
Waxing Crescent
Jan 18
First Quarter
Jan 26
Full
Feb 3
Last Quarter
Feb 9
New

Hourly Weather History & Observations

Time (PST) Temp. Windchill Dew Point Humidity Pressure Visibility Wind Dir Wind Speed Gust Speed Precip Events Conditions
12:56 AM 30.0 °F 24.1 °F 16.0 °F 56% 30.48 in 10.0 mi ENE 5.8 mph - N/A   Clear
1:56 AM 32.0 °F - 10.0 °F 40% 30.47 in 10.0 mi Calm Calm - N/A   Clear
2:56 AM 30.9 °F 22.8 °F 14.0 °F 50% 30.49 in 10.0 mi NE 9.2 mph - N/A   Clear
3:56 AM 30.0 °F 22.4 °F 16.0 °F 56% 30.51 in 10.0 mi ENE 8.1 mph - N/A   Clear
4:56 AM 30.0 °F 24.1 °F 16.0 °F 56% 30.50 in 10.0 mi ESE 5.8 mph - N/A   Clear
5:56 AM 30.9 °F 23.5 °F 16.0 °F 54% 30.50 in 10.0 mi East 8.1 mph - N/A   Clear
6:56 AM 33.1 °F 26.1 °F 15.1 °F 48% 30.51 in 10.0 mi ESE 8.1 mph - N/A   Clear
7:56 AM 33.1 °F 24.9 °F 17.1 °F 52% 30.52 in 10.0 mi ESE 10.4 mph - N/A   Clear
8:56 AM 37.0 °F 29.3 °F 18.0 °F 46% 30.53 in 10.0 mi ESE 11.5 mph - N/A   Clear
9:56 AM 37.9 °F 30.9 °F 21.9 °F 53% 30.53 in 10.0 mi ESE 10.4 mph - N/A   Clear
10:56 AM 45.0 °F 40.1 °F 23.0 °F 42% 30.53 in 10.0 mi ESE 9.2 mph - N/A   Clear
11:56 AM 48.0 °F - 21.9 °F 36% 30.50 in 10.0 mi ESE 11.5 mph - N/A   Clear
12:56 PM 50.0 °F - 19.9 °F 31% 30.49 in 10.0 mi ESE 10.4 mph - N/A   Clear
1:56 PM 50.0 °F - 21.0 °F 32% 30.49 in 10.0 mi ESE 9.2 mph - N/A   Clear
2:56 PM 54.0 °F - 17.1 °F 23% 30.50 in 10.0 mi ESE 3.5 mph - N/A   Clear
3:56 PM 52.0 °F - 17.1 °F 25% 30.53 in 10.0 mi ESE 4.6 mph - N/A   Clear
4:56 PM 51.1 °F - 18.0 °F 27% 30.53 in 10.0 mi East 5.8 mph - N/A   Clear
5:56 PM 51.1 °F - 17.1 °F 26% 30.55 in 10.0 mi ENE 8.1 mph - N/A   Clear
6:56 PM 51.1 °F - 16.0 °F 25% 30.55 in 10.0 mi ESE 3.5 mph - N/A   Clear
7:56 PM 48.9 °F - 19.9 °F 32% 30.56 in 10.0 mi ESE 5.8 mph - N/A   Clear
8:56 PM 50.0 °F - 18.0 °F 28% 30.53 in 10.0 mi East 6.9 mph - N/A   Clear
9:56 PM 48.0 °F - 21.0 °F 34% 30.54 in 10.0 mi ESE 11.5 mph - N/A   Clear
10:56 PM 50.0 °F - 17.1 °F 27% 30.51 in 10.0 mi ESE 11.5 mph - N/A   Clear
11:56 PM 50.0 °F - 15.1 °F 25% 30.51 in 10.0 mi ESE 11.5 mph - N/A   Clear